Location: El Águila
(10.4167°N, 66.7167°W)
Time: 06:19:36
(UTC+00:00)

Cosmos 1782 Rocket - Pass Details

Date: 02 October 2022
Orbit: 606 x 631 km, 82.5° (Epoch: 26 November)

Event Time Altitude Azimuth Distance (km) Brightness Sun altitude
Rises 23:39:51 0° 186° (S) 2,853 7.1 -21.3°
Reaches altitude 10° 23:42:04 10° 188° (S) 1,949 6.2 -21.8°
Maximum altitude 23:46:22 78° 274° (W) 621 3.5 -22.9°
Drops below altitude 10° 23:50:40 10° 1° (N) 1,949 6.1 -23.9°
Sets 23:52:53 0° 2° (N) 2,854 7.0 -24.5°
